Regional Weather Roundup
Issued by NWS Charleston, SC

Current Version | Previous Version | Text Only | Print | Product List | Glossary Off
Versions: 1 2 3 4 5 6 7 8 9 10 11 12 13 14 15 16 17 18 19 20 21 22 23 24 25 26 27 28 29 30 31 32 33 34 35 36 37 38 39 40 41 42 43 44 45 46 47 48 49 50

613
ASUS42 KCHS 280728
RWRCHS

REGIONAL WEATHER ROUNDUP
NATIONAL WEATHER SERVICE CHARLESTON SC
300 AM EDT THU JUL 28 2016

NOTE: "FAIR" INDICATES FEW OR NO CLOUDS BELOW 12,000 FEET WITH NO
SIGNIFICANT WEATHER AND/OR OBSTRUCTIONS TO VISIBILITY.

NOT ALL STATIONS ARE QUALITY CONTROLLED. USE DATA WITH CAUTION...
ESPECIALLY DEWPOINT OBSERVATIONS.

SCZ027-030-031-034>040-042>050-280800-
...SOUTHEAST SOUTH CAROLINA...

CITY           SKY/WX    TMP DP  RH WIND       PRES   REMARKS
N CHARLESTON   PTCLDY    83  78  85 SW8       29.98F HX  93
WATERFRONT PRK   N/A     86  81  85 SW5       29.97S HX 102
MOUNT PLEASANT FAIR      84  81  89 SW8       29.98S HX  98
JOHNS ISLAND   FAIR      84  81  89 SW6       29.99S HX  98
PINOPOLIS        N/A     82  79  89 SW7       29.91S HX  93
MONCKS CORNER  FAIR      77  73  88 SW5       29.98F
SUMMERVILLE    NOT AVBL
BEAUFORT MCAS  CLEAR     82  75  79 SW8       30.00F
BEAUFORT ARPT  FAIR      82  77  83 SW9       30.00F HX  91
HILTON HEAD IS CLEAR     84  77  79 SW6       30.01F HX  94
WALTERBORO     SUNNY     81  81 100 SW3       30.01S HX  91
ALLENDALE      FAIR      81  72  74 CALM      30.00S

...SOUTHERN MIDLANDS AND PEE DEE...

CITY           SKY/WX    TMP DP  RH WIND       PRES   REMARKS
GEORGETOWN     NOT AVBL
KINGSTREE      FAIR      79  73  83 CALM      29.97S
ORANGEBURG     CLEAR     81  71  71 W6        30.00S
BARNWELL       NOT AVBL
AIKEN          FAIR      77  70  78 SW3       30.04F
MANNING        FAIR      79  73  83 SW5       29.98F
COLUMBIA       CLEAR     83  70  64 SW5       29.98S
SUMTER         CLEAR     82  70  65 SW9       29.95F
FLORENCE       CLEAR     82  73  74 SW7       29.97R
MYRTLE BEACH   CLEAR     82  72  69 W9        29.98S
N MYRTLE BEACH CLEAR     83  78  85 W6        29.95S HX  93

$$

GAZ063-065-086>088-099>101-113>116-118-119-134>141-150-280800-
...SOUTHEAST GEORGIA...

CITY           SKY/WX    TMP DP  RH WIND       PRES   REMARKS
SAVANNAH ARPT  CLEAR     81  72  74 SW5       30.03R
HUNTER AAF     CLEAR     80  77  90 SW6       30.00S
FORT STEWART   CLEAR     77  72  85 CALM      30.01S
STATESBORO     CLEAR     81  73  75 W5        30.02S
SYLVANIA       NOT AVBL
CLAXTON        FAIR      75  74  97 CALM      30.02F

...CSRA...CENTRAL AND FAR SOUTHEAST GEORGIA...

CITY           SKY/WX    TMP DP  RH WIND       PRES   REMARKS
THOMSON        NOT AVBL
AUGUSTA-BUSH   PTCLDY    81  70  69 W6        30.00R
AUGUSTA-DANIEL PTCLDY    84  70  62 VRB3      30.02S
SWAINSBORO     FAIR      79  70  73 W5        30.04S
VIDALIA        CLEAR     79  70  73 CALM      30.04S
EASTMAN        FAIR      78  65  63 CALM      30.07S
HAZLEHURST     FAIR      81  75  82 CALM      30.03S
ALMA           CLEAR     78  72  81 CALM      30.04S
WAYCROSS       CLEAR     82  77  85 W6        30.04F HX  90
JESUP          FAIR      75  73  94 CALM      30.04S
BAXLEY         FAIR      77  77 100 CALM      30.04S
BRUNSWICK      CLEAR     81  77  89 SW6       30.04F
SAINT SIMONS   CLEAR     83  76  79 SW12      30.04S HX  91

$$

SCZ027-028-034-036>038-045-046-048>050-GAZ119-141-280800-
...LAKE AND SUPPLEMENTAL COASTAL OBSERVATIONS...

STATION/POSITION TIME  TEMP    WIND        PRES    WAVE   SWELL
                       AIR SEA DIR/SP/G            HT/PER HT/PER/DIR
                 (UTC) (F)     (DEG/KT/KT) (MB)    (FT/S) (FT/S/D)
WINYAH BAY       0545   84     230/  7     1014.0
LAKE MURRAY      0600   86     250/ 10/ 13 1014.6S
ACE BASIN NERRS  0600   83        CALM     1016.0S
FORT PULASKI     0700   83 87  220/  5/  7 1016.8F
SAPELO ISLAND    0600   83     210/ 10     1017.0S

$$

ANZ835-935-AMZ111-154-330-350-352-354-370-450-454-472-280800-
...C-MAN AND BUOY OBSERVATIONS...

STATION/POSITION TIME  TEMP    WIND        PRES    WAVE   SWELL
                       AIR SEA DIR/SP/G            HT/PER HT/PER/DIR
                 (UTC) (F)     (DEG/KT/KT) (MB)    (FT/S) (FT/S/D)
BUOY 41004       0650   86 86  230/ 17/ 21 1014.6F   4/ 5   2/160/ 8
BUOY 41008       0650   86 87  200/ 16/ 19 1016.2F   3/ 5
FOLLY BEACH CMAN 0700   85     230/ 12/ 16 1015.5F
CAPERS NEARSHORE 0608   85 84  230/ 17/ 21 1015.2F
FRIPP NEARSHORE  0708   86 87  240/ 17/ 23 1015.2F


STATION/POSITION TIME  TEMP    WIND        PRES    WAVE   SWELL
                       AIR SEA DIR/SP/G            HT/PER HT/PER/DIR
                 (UTC) (F)     (DEG/KT/KT) (MB)    (FT/S) (FT/S/D)
5E ST. MARYS GA  0701      85                N/A     3/ 4
FRYING PAN BUOY  0700   85 85  240/ 17/ 21 1014.0F
BUOY 41025       0650   83 84  290/ 10/ 10 1013.2R   3/ 5   3/230/ 5
CAPE LOOKOUT NC  0700   83     230/  5/  6 1013.4R
BUOY 41002       0650   84 85  260/ 12/ 14 1015.8F   3/ 6   2/260/ 6
BUOY 41010       0620   85 87  200/  8/ 10 1017.6F
ST AUGUSTINE FL  0700   81 85  210/  7/  9 1018.4F


$$




USA.gov is the U.S. government's official web portal to all federal, state and local government web resources and services.